sat.trackr.live / text

‹ back to catalog

STARLINK-32428

NORAD 61666 · 2024-193F

PAYLOAD ACTIVE UNKNOWN

§ Identity

Operator
Country
US
Launch date
2024-10-26
Launch site
AFETR
Launch vehicle
Mass (kg)
RCS (m²)

Purposes: comms

External: N2YO · Heavens-Above · Gunter

§ Orbital elements

Epoch: 2026-05-25T03:21:03.395232Z

Period
94.10 min
Inclination
53.1599°
Eccentricity
0.0001333
Mean motion
15.30218169 rev/d
Perigee alt
474.2 km
Apogee alt
476.1 km
Semi-major
6,853.3 km
B*
-1.5204e-5
RAAN
95.7498°
Arg perigee
72.1069°
Mean anomaly
288.0077°
Rev number
8,823

§ Raw data

STARLINK-324281 61666U 24193F   26145.13962263 -.00000810  00000+0 -15204-4 0  99902 61666  53.1599  95.7498 0001333  72.1069 288.0077 15.30218169 88235

JSON: /api/v1/satellites/61666 · /tle

For live sub-satellite position, see the globe view (requires WebGL).

§ Visibility from observer

Set your observer location to see the next 7 days of passes ≥ 10°. The values pass through the URL so the page stays shareable.

No JS? Fill the form by hand. The geolocation button needs JavaScript.